ROMMA est une association bénévole à but non lucratif. Votre soutien est indispensable : ADHERER à ROMMA ou FAIRE un DON

St-Christophe/Guiers - Berland - (38, Isère)

Massif de la Chartreuse (533 m)   Longitude: 05° 46' 44" E   Latitude: 45° 25' 43" N Station partenaire n°32
 

Détail journalier du     <<     >>

Température Precipitation Humidité Pression Vent Dir Rafale Dir. rafale Ensol.
Heure (°C) (mm) (%) (hPa) (km/h) (km/h) (min)
01:00 16.40489995ESE21ENE0
02:00 15.30559993NNE10SO0
03:00 13.40629993E11S0
04:00 12.60669992E8ENE0
05:00 11.90699983ENE6ENE0
06:00 11.70679983ENE8ENE0
07:00 10.80729982ENE6ENE0
08:00 11.90749983ENE5ENE0
09:00 12.80759982OSO6OSO0
10:00 13.00779986SO15SSO10
11:00 14.30729985SO11OSO50
12:00 15.70739974SO16OSO20
13:00 16.40659976SO15ONO35
14:00 17.90589975O16SO40
15:00 18.20579975SO16NO30
16:00 17.30689976OSO18SO0
17:00 16.706999710SO21SO0
18:00 16.10739978SO19SSO0
19:00 16.20729975SO15SO20
20:00 15.60759988SO18SO60
21:00 14.30799998SO19SSO5
22:00 13.408410004SO11SO0
23:00 12.908610003OSO10SO0
minuit 11.409010012SSE6ENE0

Graphique du 23-04-2019

 

Serveur OMMA